TimeEST,TemperatureF,Dew PointF,Humidity,Sea Level PressureIn,VisibilityMPH,Wind Direction,Wind SpeedMPH,Gust SpeedMPH,PrecipitationIn,Events,Conditions,WindDirDegrees,DateUTC
12:53 AM,35.1,33.1,92,30.14,10.0,Calm,Calm,-,N/A,,Clear,0,2012-11-26 05:53:00
1:53 AM,34.0,30.9,89,30.13,8.0,Calm,Calm,-,N/A,,Clear,0,2012-11-26 06:53:00
2:53 AM,34.0,30.9,89,30.14,10.0,Calm,Calm,-,N/A,,Clear,0,2012-11-26 07:53:00
3:53 AM,33.1,30.9,92,30.14,10.0,Calm,Calm,-,N/A,,Clear,0,2012-11-26 08:53:00
4:53 AM,35.1,32.0,89,30.15,10.0,SW,3.5,-,N/A,,Clear,230,2012-11-26 09:53:00
5:53 AM,36.0,34.0,93,30.16,10.0,Calm,Calm,-,N/A,,Clear,0,2012-11-26 10:53:00
6:53 AM,35.1,33.1,92,30.17,1.8,Calm,Calm,-,N/A,,Clear,0,2012-11-26 11:53:00
7:00 AM,33.8,32.0,93,30.18,10.0,Calm,Calm,-,N/A,,Clear,0,2012-11-26 12:00:00
7:53 AM,39.9,37.0,89,30.20,9.0,Calm,Calm,-,N/A,,Clear,0,2012-11-26 12:53:00
8:53 AM,50.0,37.9,63,30.22,10.0,West,3.5,-,N/A,,Clear,260,2012-11-26 13:53:00
9:53 AM,55.9,33.1,42,30.24,10.0,WSW,6.9,-,N/A,,Clear,240,2012-11-26 14:53:00
10:53 AM,60.1,28.0,30,30.23,10.0,WSW,5.8,-,N/A,,Clear,240,2012-11-26 15:53:00
11:53 AM,63.0,28.0,27,30.21,10.0,WNW,8.1,-,N/A,,Clear,300,2012-11-26 16:53:00
12:53 PM,64.0,25.0,23,30.18,10.0,WSW,6.9,-,N/A,,Clear,240,2012-11-26 17:53:00
1:53 PM,66.0,25.0,21,30.17,10.0,West,3.5,-,N/A,,Clear,270,2012-11-26 18:53:00
2:53 PM,66.9,25.0,21,30.17,10.0,WSW,4.6,-,N/A,,Clear,240,2012-11-26 19:53:00
3:53 PM,64.9,30.9,28,30.17,10.0,SSW,5.8,-,N/A,,Clear,200,2012-11-26 20:53:00
4:53 PM,59.0,28.9,32,30.18,10.0,SSW,6.9,-,N/A,,Clear,200,2012-11-26 21:53:00
5:53 PM,55.0,28.9,37,30.19,10.0,South,4.6,-,N/A,,Clear,190,2012-11-26 22:53:00
6:53 PM,51.1,32.0,48,30.20,10.0,Calm,Calm,-,N/A,,Clear,0,2012-11-26 23:53:00
7:53 PM,46.0,34.0,63,30.21,10.0,Calm,Calm,-,N/A,,Clear,0,2012-11-27 00:53:00
8:53 PM,44.1,36.0,73,30.21,10.0,Calm,Calm,-,N/A,,Clear,0,2012-11-27 01:53:00
9:53 PM,42.1,36.0,79,30.22,10.0,Calm,Calm,-,N/A,,Clear,0,2012-11-27 02:53:00
10:53 PM,41.0,37.0,86,30.22,10.0,Calm,Calm,-,N/A,,Clear,0,2012-11-27 03:53:00
11:53 PM,41.0,37.4,87,30.21,10.0,Calm,Calm,-,N/A,,Clear,0,2012-11-27 04:53:00